Hourly Data Report for September 30, 2017

All times are specified in Local Standard Time (LST). Add 1 hour to adjust for Daylight Saving Time where and when it is observed.

EUREKA CLIMATE
NUNAVUT

79°59'21.000" N
85°56'02.000" W
10.00 m
2401199
71613
NEK

Download Data

Hourly Data (September 2017)
Hourly Data Report for September 30, 2017
Temp Definition
°C
Dew Point Temp Definition
°C
Rel Hum Definition
%
Wind Dir Definition
10's deg

Wind Spd Definition
km/h
Visibility Definition
km
Stn Press Definition
kPa
Hmdx Definition


Wind Chill Definition


Weather Definition


TIME
00:00 -11.2 -11.8 95 28 6   101.47   -15 LegendNANA
01:00 -11.4 -12.1 95 26 8   101.47   -16 LegendNANA
02:00 -11.9 -12.6 94 28 9   101.49   -17 LegendNANA
03:00 -11.9 -12.5 95 32 4   101.51   -14 LegendNANA
04:00 -11.8 -12.6 94 36 5   101.50   -15 LegendNANA
05:00 -11.7 -12.3 96 1 8   101.50   -16 LegendNANA
06:00 -11.8 -12.5 94 29 6   101.51   -16 LegendNANA
07:00 -12.1 -12.9 94 29 9   101.51   -17 LegendNANA
08:00 -12.8 -13.7 93 28 8   101.50   -18 LegendNANA
09:00 -12.9 -13.8 93 29 9   101.49   -18 LegendNANA
10:00 -13.1 -14.0 93 27 8   101.49   -18 LegendNANA
11:00 -13.0 -14.0 93 28 7   101.48   -18 LegendNANA
12:00 -13.2 -14.1 93 28 9   101.48   -19 LegendNANA
13:00 -13.7 -14.7 93 28 9   101.49   -19 LegendNANA
14:00 -13.9 -14.9 92 29 8   101.49   -19 LegendNANA
15:00 -14.0 -15.0 92 29 8   101.48   -19 LegendNANA
16:00 -14.1 -15.1 92 29 8   101.47   -19 LegendNANA
17:00 -14.0 -14.9 92 29 6   101.48   -18 LegendNANA
18:00 -14.3 -15.3 92 31 4   101.46   -17 LegendNANA
19:00 -14.3 -15.4 92 29 3   101.44   -16 LegendNANA
20:00 -15.0 -16.1 91 34 2   101.43   -16 LegendNANA
21:00 -15.8 -17.0 90 32 2   101.40   -17 LegendNANA
22:00 -15.1 -16.2 91 31 1   101.37   -16 LegendNANA
23:00 -17.1 -18.5 89 2 3   101.34   -19 LegendNANA

Notes on Data Quality.

Legend

  • E = Estimated
  • M = Missing
  • NA = Not Available
  • ‡ = Partner data that is not subject to review by the National Climate Archives
Date modified: